TimeEDT,TemperatureF,Dew PointF,Humidity,Sea Level PressureIn,VisibilityMPH,Wind Direction,Wind SpeedMPH,Gust SpeedMPH,PrecipitationIn,Events,Conditions,WindDirDegrees,DateUTC
12:15 AM,30.2,21.2,69,30.15,10.0,North,10.4,-,N/A,,Overcast,10,2013-04-10 04:15:00
12:35 AM,32.0,21.2,64,30.16,10.0,NNE,8.1,17.3,N/A,,Overcast,20,2013-04-10 04:35:00
12:55 AM,32.0,21.2,64,30.15,10.0,NNE,8.1,-,N/A,,Overcast,20,2013-04-10 04:55:00
1:15 AM,32.0,23.0,69,30.12,10.0,NNE,8.1,-,N/A,,Overcast,30,2013-04-10 05:15:00
1:35 AM,32.0,24.8,75,30.12,10.0,NNE,8.1,-,N/A,,Overcast,30,2013-04-10 05:35:00
1:55 AM,32.0,23.0,69,30.12,10.0,NNE,10.4,-,N/A,,Overcast,20,2013-04-10 05:55:00
2:15 AM,32.0,24.8,75,30.14,10.0,NNE,5.8,-,N/A,,Overcast,20,2013-04-10 06:15:00
2:35 AM,32.0,24.8,75,30.16,10.0,North,5.8,-,N/A,,Overcast,10,2013-04-10 06:35:00
2:55 AM,32.0,24.8,75,30.16,10.0,North,9.2,-,N/A,,Overcast,10,2013-04-10 06:55:00
3:15 AM,32.0,24.8,75,30.17,10.0,North,8.1,-,N/A,,Overcast,10,2013-04-10 07:15:00
3:35 AM,32.0,24.8,75,30.17,10.0,North,4.6,-,N/A,,Overcast,360,2013-04-10 07:35:00
3:55 AM,32.0,23.0,69,30.18,10.0,NNE,8.1,-,N/A,,Overcast,20,2013-04-10 07:55:00
4:15 AM,32.0,21.2,64,30.18,10.0,NNE,10.4,-,N/A,,Overcast,30,2013-04-10 08:15:00
4:35 AM,30.2,21.2,69,30.16,10.0,NNE,8.1,-,N/A,,Overcast,30,2013-04-10 08:35:00
4:55 AM,30.2,21.2,69,30.15,10.0,NNE,9.2,-,N/A,,Overcast,30,2013-04-10 08:55:00
5:15 AM,30.2,21.2,69,30.14,10.0,NNE,8.1,-,N/A,,Overcast,30,2013-04-10 09:15:00
5:35 AM,30.2,21.2,69,30.14,10.0,North,9.2,-,N/A,,Overcast,10,2013-04-10 09:35:00
5:55 AM,30.2,21.2,69,30.15,10.0,North,12.7,18.4,N/A,,Overcast,10,2013-04-10 09:55:00
6:15 AM,30.2,23.0,75,30.12,10.0,NNE,9.2,-,N/A,,Overcast,30,2013-04-10 10:15:00
6:35 AM,30.2,21.2,69,30.12,10.0,NNE,12.7,19.6,N/A,,Mostly Cloudy,20,2013-04-10 10:35:00
6:55 AM,30.2,21.2,69,30.11,10.0,NNE,11.5,17.3,N/A,,Partly Cloudy,30,2013-04-10 10:55:00
7:15 AM,30.2,23.0,75,30.11,10.0,NNE,9.2,-,N/A,,Partly Cloudy,30,2013-04-10 11:15:00
7:35 AM,30.2,21.2,69,30.10,10.0,NE,9.2,16.1,N/A,,Clear,40,2013-04-10 11:35:00
7:55 AM,30.2,21.2,69,30.12,10.0,NNE,11.5,-,N/A,,Clear,30,2013-04-10 11:55:00
8:15 AM,30.2,21.2,69,30.13,10.0,NNE,11.5,18.4,N/A,,Clear,20,2013-04-10 12:15:00
8:35 AM,30.2,21.2,69,30.15,10.0,NNE,10.4,18.4,N/A,,Clear,20,2013-04-10 12:35:00
8:55 AM,30.2,21.2,69,30.17,10.0,NNE,8.1,17.3,N/A,,Clear,20,2013-04-10 12:55:00
9:15 AM,32.0,21.2,64,30.17,10.0,NNE,6.9,16.1,N/A,,Clear,30,2013-04-10 13:15:00
9:35 AM,32.0,21.2,64,30.15,10.0,NNE,13.8,19.6,N/A,,Clear,30,2013-04-10 13:35:00
9:55 AM,32.0,21.2,64,30.14,10.0,NE,11.5,20.7,N/A,,Scattered Clouds,40,2013-04-10 13:55:00
10:15 AM,33.8,21.2,60,30.12,10.0,NE,13.8,23.0,N/A,,Scattered Clouds,40,2013-04-10 14:15:00
10:35 AM,33.8,23.0,65,30.12,10.0,NNE,10.4,16.1,N/A,,Clear,30,2013-04-10 14:35:00
10:55 AM,33.8,21.2,60,30.11,10.0,NNE,11.5,16.1,N/A,,Clear,30,2013-04-10 14:55:00
11:15 AM,35.6,21.2,56,30.13,10.0,North,12.7,21.9,N/A,,Clear,10,2013-04-10 15:15:00
11:35 AM,35.6,21.2,56,30.17,10.0,NNE,10.4,-,N/A,,Clear,30,2013-04-10 15:35:00
11:55 AM,37.4,21.2,52,30.16,10.0,NNE,9.2,16.1,N/A,,Clear,20,2013-04-10 15:55:00
12:15 PM,37.4,23.0,56,30.16,10.0,NE,10.4,17.3,N/A,,Clear,40,2013-04-10 16:15:00
12:35 PM,39.2,21.2,49,30.15,10.0,NE,12.7,19.6,N/A,,Clear,50,2013-04-10 16:35:00
1:15 PM,41.0,21.2,45,30.14,10.0,NE,8.1,-,N/A,,Clear,40,2013-04-10 17:15:00
1:35 PM,41.0,23.0,49,30.12,10.0,NE,10.4,-,N/A,,Clear,40,2013-04-10 17:35:00
2:15 PM,42.8,21.2,42,30.14,10.0,NE,9.2,17.3,N/A,,Clear,50,2013-04-10 18:15:00
2:35 PM,44.6,21.2,39,30.15,10.0,North,11.5,-,N/A,,Clear,360,2013-04-10 18:35:00
2:55 PM,44.6,19.4,37,30.15,10.0,North,8.1,-,N/A,,Clear,360,2013-04-10 18:55:00
3:15 PM,42.8,19.4,39,30.15,10.0,North,9.2,17.3,N/A,,Clear,360,2013-04-10 19:15:00
3:35 PM,42.8,19.4,39,30.15,10.0,NNW,11.5,17.3,N/A,,Partly Cloudy,340,2013-04-10 19:35:00
3:55 PM,42.8,17.6,36,30.13,10.0,NNE,11.5,16.1,N/A,,Partly Cloudy,20,2013-04-10 19:55:00
4:15 PM,42.8,15.8,34,30.11,10.0,North,12.7,19.6,N/A,,Clear,360,2013-04-10 20:15:00
4:35 PM,42.8,15.8,34,30.10,10.0,NNE,10.4,19.6,N/A,,Clear,20,2013-04-10 20:35:00
4:55 PM,41.0,15.8,36,30.11,10.0,North,12.7,18.4,N/A,,Clear,10,2013-04-10 20:55:00
5:15 PM,41.0,17.6,39,30.11,10.0,NNE,12.7,19.6,N/A,,Clear,30,2013-04-10 21:15:00
5:35 PM,41.0,15.8,36,30.12,10.0,NE,10.4,20.7,N/A,,Clear,40,2013-04-10 21:35:00
5:55 PM,39.2,10.4,31,30.13,10.0,NNE,15.0,20.7,N/A,,Partly Cloudy,30,2013-04-10 21:55:00
6:15 PM,39.2,10.4,31,30.11,10.0,NNE,16.1,24.2,N/A,,Mostly Cloudy,30,2013-04-10 22:15:00
6:35 PM,39.2,12.2,33,30.11,10.0,NNE,9.2,17.3,N/A,,Overcast,20,2013-04-10 22:35:00
6:55 PM,37.4,10.4,33,30.11,10.0,NE,11.5,16.1,N/A,,Overcast,40,2013-04-10 22:55:00
7:15 PM,37.4,12.2,36,30.13,10.0,NE,11.5,-,N/A,,Overcast,40,2013-04-10 23:15:00
7:35 PM,37.4,12.2,36,30.14,10.0,NNE,10.4,16.1,N/A,,Overcast,30,2013-04-10 23:35:00
7:55 PM,35.6,14.0,41,30.13,10.0,NNE,9.2,-,N/A,,Overcast,30,2013-04-10 23:55:00
8:15 PM,35.6,15.8,44,30.13,10.0,NNE,6.9,-,N/A,,Overcast,20,2013-04-11 00:15:00
8:35 PM,35.6,15.8,44,30.13,10.0,North,9.2,-,N/A,,Overcast,10,2013-04-11 00:35:00
8:55 PM,33.8,15.8,48,30.11,10.0,NNE,9.2,-,N/A,,Overcast,20,2013-04-11 00:55:00
9:15 PM,33.8,15.8,48,30.12,10.0,NNE,9.2,-,N/A,,Mostly Cloudy,20,2013-04-11 01:15:00
9:35 PM,33.8,17.6,52,30.12,10.0,NNE,10.4,-,N/A,,Overcast,20,2013-04-11 01:35:00
9:55 PM,33.8,17.6,52,30.12,10.0,NNE,9.2,-,N/A,,Mostly Cloudy,30,2013-04-11 01:55:00
10:15 PM,33.8,17.6,52,30.11,10.0,NNE,10.4,-,N/A,,Partly Cloudy,20,2013-04-11 02:15:00
10:35 PM,33.8,19.4,56,30.13,10.0,NNE,10.4,-,N/A,,Clear,20,2013-04-11 02:35:00
10:55 PM,33.8,19.4,56,30.14,10.0,North,8.1,-,N/A,,Scattered Clouds,10,2013-04-11 02:55:00
11:15 PM,33.8,19.4,56,30.14,10.0,NNE,8.1,-,N/A,,Scattered Clouds,20,2013-04-11 03:15:00
11:35 PM,33.8,19.4,56,30.14,10.0,North,8.1,-,N/A,,Scattered Clouds,10,2013-04-11 03:35:00
11:55 PM,33.8,19.4,56,30.14,10.0,NNE,6.9,-,N/A,,Partly Cloudy,20,2013-04-11 03:55:00